الكل
Scone Airport (Scone, New South Wales) NSO حالة الطقس
|
Scone, New South Wales (NSO / YSCO)
سماء صافية
رياح هادئة |
|
10 °C |
توقع منطقة محطة المطارNSO
| Here is the undecoded forecast: 2026/09/06 18:01 YSCO 061801Z 0620/0708 VRB03KT 9999 SCT015 FM070000 26008KT CAVOK PROB30 0620/0622 0500 FG BKN001 RMK T 07 15 20 23 Q 1022 1023 1020 1017 |
محفوظات أحدث تقرير روتيني عن حالة الطقس من أجل الطيران (الميتار )NSO
| Date | Time (AEST) | Flight Rules | Wind Dir. | Speed | Type | Height AGL (ft) | Visibility | Temp (°C) | Temp (°F) | Dew Point (°C) | Dew Point (°F) | Rel. Humid. | Pressure | Density Altitude | Remarks |
|---|---|---|---|---|---|---|---|---|---|---|---|---|---|---|---|
| 07-سبت | 08:00 | VFR | Calm | 10000 meters | 10° | 50° | 9° | 48° | 93% | 1023 mb | -144 ft | ||||
| 07-سبت | 07:00 | VFR | Calm | 10000 meters | 6° | 42° | 6° | 42° | 100% | 1022 mb | -595 ft | ||||
| 07-سبت | 06:00 | VFR | 290° | 5 kt | 10000 meters | 3° | 37° | 3° | 37° | 100% | 1022 mb | -955 ft | |||
| 07-سبت | 05:00 | VFR | 30° | 3 kt | 10000 meters |
3° | 37° | 3° | 37° | 100% | 1022 mb | -955 ft | |||
| 07-سبت | 04:08 | MVFR | Calm | 5000 meters |
3° | 37° | 3° | 37° | 100% | 1021 mb | -925 ft | Mist | |||
| 07-سبت | 03:00 | VFR | 290° | 3 kt | 10000 meters | 5° | 41° | 4° | 39° | 93% | 1022 mb | -715 ft | |||
| 07-سبت | 02:00 | VFR | Calm | 10000 meters | 5° | 41° | 4° | 39° | 93% | 1022 mb | -715 ft | ||||
| 07-سبت | 01:00 | VFR | Calm | 10000 meters | 5° | 41° | 4° | 39° | 93% | 1022 mb | -715 ft | ||||
| 07-سبت | 00:00 | VFR | 300° | 4 kt | 10000 meters | 7° | 44° | 5° | 41° | 87% | 1022 mb | -475 ft | |||
| 06-سبت | 23:00 | VFR | Calm | 10000 meters | 8° | 46° | 6° | 42° | 87% | 1021 mb | -325 ft | ||||
| 06-سبت | 22:00 | VFR | 360° | 1 kt | 10000 meters | 9° | 48° | 6° | 42° | 81% | 1021 mb | -205 ft | |||
| 06-سبت | 21:00 | VFR | 90° | 3 kt | 10000 meters | 10° | 50° | 7° | 44° | 82% | 1021 mb | -85 ft | |||
| 06-سبت | 20:00 | VFR | 360° | 5 kt | 10000 meters | 12° | 53° | 7° | 44° | 71% | 1020 mb | 184 ft | |||
| 06-سبت | 19:00 | VFR | Calm | 10000 meters | 13° | 55° | 7° | 44° | 67% | 1019 mb | 334 ft | ||||
| 06-سبت | 18:00 | VFR | 320° | 5 kt | 10000 meters | 18° | 64° | 7° | 44° | 49% | 1018 mb | 963 ft | |||
| 06-سبت | 17:00 | VFR | 280° | 3 kt | 10000 meters | 21° | 69° | 8° | 46° | 43% | 1018 mb | 1,323 ft | |||
| 06-سبت | 16:00 | VFR | 280° | 8 kt | 10000 meters | 22° | 71° | 6° | 42° | 35% | 1017 mb | 1,473 ft | |||
| 06-سبت | 15:00 | VFR | 270° | 7 kt | 10000 meters | 22° | 71° | 6° | 42° | 35% | 1017 mb | 1,473 ft | |||
| 06-سبت | 14:00 | VFR | 290° | 9 kt | 10000 meters | 22° | 71° | 7° | 44° | 38% | 1017 mb | 1,473 ft | |||
| 06-سبت | 13:00 | VFR | 280° | 9 kt | 10000 meters | 21° | 69° | 8° | 46° | 43% | 1017 mb | 1,353 ft | |||
| 06-سبت | 12:00 | VFR | 280° | 11 kt | 10000 meters | 20° | 68° | 6° | 42° | 40% | 1018 mb | 1,203 ft | |||
| 06-سبت | 11:00 | VFR | 280° | 11 kt | 10000 meters | 19° | 66° | 6° | 42° | 43% | 1018 mb | 1,083 ft | |||
| 06-سبت | 10:00 | VFR | 280° | 11 kt | 10000 meters | 18° | 64° | 7° | 44° | 49% | 1019 mb | 934 ft | |||
| 06-سبت | 09:00 | VFR | 290° | 12 kt | 10000 meters | 16° | 60° | 6° | 42° | 51% | 1019 mb | 694 ft |
تسجيل الدخول
| مُتصفحك غير مُدعَّم. قم بترقية متصفحك |
